CAPE
17 5 9 10 7 5 5 5 2 4 1 0 1 5 2 1 0 0 0 0 0 0 9 0 0 0 0 0 0 0 6 0 0 0 0 0 0 0 0 0 0 0 0 126 19
22 19 23 20 25 21 8 5 6 3 4 1 1 5 8 0 0 0 0 0 0 0 31 0 0 0 4 0 0 2 0 0 0 0 0 0 0 0 0 0 0 0 0 30 0
9 13 7 5 5 16 10 24 9 4 0 5 1 1 5 0 0 0 0 0 0 0 0 0 7 12 4 0 0 0 0 0 0 0 0 0 0 0 0 0 0 0 0 0 0
8 5 6 2 1 2 8 4 13 8 4 1 1 2 9 0 0 0 0 0 0 0 0 0 10 16 7 0 0 0 0 0 0 0 0 0 0 0 0 0 0 0 0 0 0
6 8 7 1 5 7 7 7 5 3 5 13 3 3 5 0 0 0 0 1 0 2 3 5 3 2 2 1 3 1 0 0 0 0 3 0 0 0 0 0 0 0 0 0 0
3 4 7 10 6 2 2 1 5 6 3 4 22 5 12 0 0 0 0 0 5 0 0 24 1 0 26 25 15 0 0 0 8 1 10 11 0 0 0 0 0 0 0 0 0
8 4 0 4 3 2 4 8 5 4 5 5 10 21 7 0 0 0 0 0 0 0 0 0 14 24 13 15 2 16 14 7 22 16 11 8 5 0 0 0 0 0 0 0 0
6 7 8 7 8 5 3 1 0 0 1 3 5 7 2 0 0 0 0 0 0 26 11 17 38 18 22 14 2 0 11 0 0 10 11 24 0 0 0 0 0 0 0 0 0
8 8 8 7 6 3 0 0 0 0 4 1 7 10 0 0 0 0 0 0 0 3 28 30 20 1 19 16 2 0 0 0 0 8 12 7 2 0 0 0 0 0 0 0 0
10 6 4 2 1 0 0 0 0 0 0 1 17 5 0 0 0 0 0 0 0 4 42 34 33 25 5 6 2 6 0 0 0 0 29 23 7 0 0 0 0 0 0 0 0
4 5 6 2 0 0 0 0 0 0 0 0 0 0 0 0 0 0 0 0 0 6 1 7 7 0 2 2 13 0 0 0 0 7 35 50 27 0 3 0 0 0 0 0 0
2 3 6 6 0 0 0 0 0 0 0 0 0 0 0 0 0 0 0 0 0 1 15 7 5 1 1 0 7 7 0 0 0 0 44 39 65 10 11 1 0 0 0 0 0
10 1 3 5 0 0 0 0 0 0 8 0 0 0 0 0 0 0 0 0 0 2 0 1 0 0 0 2 2 1 1 0 0 0 4 27 30 30 2 23 1 0 0 0 0
13 0 7 17 0 0 0 0 0 0 0 0 0 0 0 0 0 0 0 6 3 0 0 0 0 0 0 1 0 2 0 7 4 0 0 17 1 0 0 0 0 0 0 0 0
24 0 2 2 0 0 0 0 0 2 0 0 0 0 0 0 0 0 0 1 5 0 0 0 0 0 0 0 0 0 0 0 0 0 0 0 31 0 0 0 0 0 0 0 0
19 0 0 0 0 0 0 0 1 2 0 0 0 0 0 0 0 0 0 2 4 24 8 0 0 0 0 0 0 1 11 16 12 6 0 0 0 0 0 0 0 0 0 0 0
19 5 0 0 0 0 0 0 8 0 0 0 0 0 0 0 0 0 0 2 0 4 5 6 1 0 0 0 0 7 20 4 4 1 0 0 1 0 0 0 0 0 0 0 0
29 7 0 0 0 0 0 0 1 0 0 0 0 0 0 0 0 0 0 0 0 0 0 0 0 0 0 0 0 0 1 0 9 0 0 0 0 0 0 0 0 0 0 0 0
23 0 0 0 0 0 0 0 0 4 1 0 0 0 0 0 0 0 0 0 0 0 0 0 0 0 0 0 0 1 13 0 1 0 0 0 0 0 0 0 0 0 0 0 0
0 0 0 0 0 0 0 0 3 2 0 0 0 0 0 0 0 8 0 0 0 0 0 0 0 0 0 0 3 3 0 0 0 0 0 0 0 0 0 0 0 0 0 0 0
0 0 0 0 0 0 0 0 0 0 0 0 0 0 0 2 0 0 0 0 0 0 0 0 0 0 0 0 0 18 29 0 0 3 0 0 0 0 0 0 0 0 0 0 0
0 0 0 0 0 0 0 0 0 0 0 0 0 0 0 0 0 3 0 0 0 1 0 0 0 0 0 0 0 0 1 0 0 0 0 0 0 0 0 0 0 0 0 0 0
8 0 0 0 0 0 0 0 0 0 0 0 0 0 1 0 0 0 0 0 0 0 0 0 0 0 0 0 0 0 0 5 0 0 0 0 0 0 0 0 0 0 0 0 0
4 0 0 0 0 0 0 0 0 0 0 0 0 0 0 0 0 0 0 0 0 0 4 1 0 0 0 0 0 0 0 1 8 9 0 0 0 0 0 0 0 0 0 0 0
0 0 0 0 0 0 0 0 0 0 0 0 0 0 0 0 0 0 0 0 0 0 0 0 0 0 0 0 0 0 0 0 1 0 0 0 0 0 0 0 0 0 0 0 0
0 0 0 0 0 0 0 0 0 0 0 0 0 0 0 0 0 0 0 0 0 0 0 0 0 0 0 0 0 0 0 0 0 0 0 0 0 0 0 0 0 0 0 0 0
3 0 0 0 0 0 0 0 0 0 0 0 0 0 0 0 0 0 0 0 0 0 0 1 0 0 0 0 0 0 0 0 0 0 0 0 0 0 0 0 0 0 0 0 0
CIN
0 -1 0 0 0 0 0 0 0 0 -2 0 -1 0 0 0 0 0 0 0 0 0 -5 0 0 0 0 0 0 0 -1 0 0 0 0 0 0 0 0 0 0 0 0 -395 -520
0 0 0 0 0 0 0 0 0 0 0 -1 -2 0 0 0 0 0 0 0 0 0 -2 0 0 0 -2 0 0 -2 0 0 0 0 0 0 0 0 0 0 0 0 0 -457 0
0 0 -4 -5 -1 0 0 0 0 0 0 0 0 -1 0 0 0 0 0 0 0 0 0 0 -8 -4 0 0 0 0 0 0 0 0 0 0 0 0 0 0 0 0 0 0 0
-1 -1 0 0 0 0 0 0 0 0 -2 -1 0 -1 0 0 0 0 0 0 0 0 -1 -1 -5 0 -1 0 0 0 0 0 0 0 0 0 0 0 0 0 0 0 0 0 0
-1 -1 0 -2 -1 -1 0 0 0 -1 -2 -2 -1 -1 -2 0 0 0 0 -1 0 -4 -1 -1 -1 -2 0 -1 -4 -1 0 0 0 0 -10 0 0 0 0 0 0 0 0 0 0
-1 0 -1 0 0 -1 0 0 0 -1 0 -2 0 -1 0 0 0 0 0 0 -2 0 -1 -1 0 0 -3 -2 -4 0 0 0 -10 -1 -42 -13 0 0 0 0 0 0 0 0 0
-1 -1 0 0 -1 -1 0 -1 0 0 0 0 -2 0 -1 0 0 0 0 0 0 0 0 0 -15 -8 -8 -2 -12 -8 -4 -18 -10 -26 -20 -16 -11 0 0 0 0 0 0 0 0
-1 -1 0 0 -1 -1 0 0 0 0 0 0 0 -8 -1 0 0 0 0 0 0 -15 -12 -21 -13 -9 -1 -15 -6 0 -7 0 0 -23 -15 -13 0 0 0 0 0 0 0 0 0
-1 -1 -1 -1 -1 0 0 0 0 0 0 0 -1 -4 0 0 0 0 0 0 0 -14 -18 -7 -9 -1 -4 -2 -12 -4 0 0 0 -26 -25 -7 0 0 0 0 0 0 0 0 0
0 0 0 0 0 0 0 0 0 0 0 0 -1 0 0 0 0 0 0 0 0 -6 -3 0 -1 -1 0 -8 -1 -4 0 -2 0 0 -7 -3 -16 0 0 0 0 0 0 0 0
0 -1 0 0 0 0 0 0 0 0 -9 0 0 0 0 0 0 0 0 0 0 -7 0 -1 -1 0 -2 -4 0 0 0 0 0 -53 -16 -1 -2 0 -44 0 0 0 0 0 0
0 0 -1 0 0 0 0 0 0 0 0 0 0 0 0 0 0 0 0 0 0 0 -2 -6 -1 -1 -2 0 -4 -25 0 0 0 0 -7 -14 -4 -32 -34 -8 0 0 0 0 0
-1 0 0 0 0 0 0 0 0 0 -2 0 0 0 0 0 0 0 0 0 0 0 0 0 0 0 0 0 0 -1 -1 0 0 0 -23 -9 -9 -22 -32 -18 -4 0 0 0 0
-1 0 -1 0 0 0 0 0 0 0 0 0 0 0 0 0 0 0 0 -19 -17 -1 0 -1 0 0 0 0 0 0 0 0 0 0 0 -12 0 0 0 0 -2 0 0 0 0
-1 0 0 0 0 0 0 0 0 -25 0 0 0 0 0 0 0 0 0 -2 -6 0 0 0 0 0 0 0 0 0 0 0 0 0 0 0 -1 0 0 0 0 0 0 0 0
0 0 0 0 0 0 0 0 -3 0 0 0 0 0 0 0 0 0 0 -1 -14 -7 -20 0 0 0 0 0 0 -12 -8 -6 -2 -2 0 0 0 0 0 0 0 0 0 0 0
0 -30 0 0 0 0 0 0 -1 0 0 0 0 0 0 0 0 0 0 0 -1 -3 -3 -6 -9 0 0 0 0 -5 -1 -1 -1 -3 0 0 -2 0 0 0 0 0 0 0 0
0 -19 0 0 0 0 0 0 -2 0 0 0 0 0 0 0 0 0 0 0 -1 0 0 0 0 -1 0 0 0 0 0 -1 -23 0 0 0 0 0 0 0 0 0 0 0 0
-2 0 0 0 0 0 0 0 -1 -13 0 0 0 0 0 -1 0 0 0 0 0 0 -1 0 0 0 0 0 0 -1 -2 0 -5 0 0 0 0 0 0 0 0 0 0 0 0
0 0 0 0 0 0 0 0 -1 0 0 0 0 0 0 0 0 -20 0 0 0 0 0 0 -1 0 0 0 -2 -6 0 0 0 0 0 0 0 0 0 0 0 0 0 0 0
0 0 0 0 0 0 0 0 0 0 -1 0 0 0 0 -6 0 0 0 0 0 0 0 0 0 0 0 0 0 -1 0 0 0 -9 0 0 0 0 0 0 0 0 0 0 0
0 0 0 0 0 0 0 0 0 0 0 0 0 0 0 0 0 -1 -1 0 0 0 0 0 0 0 0 0 0 0 0 0 0 0 0 0 0 0 0 0 0 0 0 0 0
-1 0 0 0 0 0 0 0 0 0 0 0 -1 0 -2 0 0 0 0 0 0 0 0 0 0 0 0 0 0 0 0 -8 -1 0 0 0 0 0 0 0 0 0 0 0 0
-5 0 0 0 0 0 0 0 0 0 0 0 0 0 0 0 0 0 0 0 0 0 -1 -1 0 -3 0 0 0 0 0 -3 -4 -2 0 0 0 0 0 0 0 0 0 0 0
0 0 0 0 0 0 0 0 0 0 0 0 0 0 0 0 0 0 0 0 0 0 0 0 0 -1 0 0 0 0 0 0 -9 0 0 0 0 0 0 0 0 0 0 0 0
0 0 0 0 0 0 0 0 0 0 0 0 0 0 0 0 0 0 0 0 0 0 0 -2 0 0 0 0 0 0 0 0 0 0 0 0 0 0 0 0 0 0 0 0 0
-31 0 0 0 0 0 0 0 0 0 0 0 0 0 0 0 0 0 0 0 0 0 0 0 0 0 0 0 0 0 0 0 0 0 0 0 0 0 0 0 0 0 0 0 0
Wind_Speed
31 31 31 32 33 34 34 34 34 33 33 33 32 31 30 31 31 24 18 10 12 3 11 12 13 11 14 16 16 16 29 37 38 42 45 36 36 30 32 31 27 26 25 20 13
35 35 35 35 36 35 34 33 33 33 32 31 31 30 31 32 30 23 12 6 5 3 7 11 13 11 15 16 17 17 29 33 32 36 41 40 39 33 31 37 31 28 23 15 14
36 36 37 37 37 37 37 36 34 33 32 31 28 27 28 29 29 21 18 0 4 4 5 10 13 11 14 16 16 19 26 28 31 35 34 40 43 35 36 36 28 34 27 20 17
35 36 37 39 39 40 40 39 37 36 34 33 31 29 28 22 28 17 17 12 2 5 8 10 12 14 16 16 15 24 21 21 28 36 33 42 37 40 43 40 39 39 31 24 22
35 36 37 38 39 39 39 40 39 38 36 35 31 28 24 23 19 17 20 15 4 5 7 10 14 14 18 17 17 19 21 17 26 37 36 38 44 44 49 41 35 31 27 29 24
38 39 39 40 41 42 42 40 39 37 35 34 32 27 25 31 23 18 14 14 9 8 10 10 15 13 19 19 14 19 17 17 21 36 37 41 48 41 46 36 32 27 30 31 28
40 40 41 43 44 45 46 46 43 40 36 33 31 29 30 25 19 18 20 15 13 10 12 12 11 15 19 21 17 16 21 17 16 34 38 34 47 59 46 42 38 31 35 34 32
41 42 44 45 46 47 48 49 47 43 38 33 29 28 39 25 22 25 24 22 17 14 13 13 11 16 19 21 21 16 18 21 18 32 35 31 60 53 49 47 46 38 36 39 36
43 45 47 48 49 51 53 53 46 40 33 27 26 24 39 26 24 23 21 21 17 16 15 15 13 17 18 19 22 18 21 18 17 30 33 32 50 47 45 52 50 40 38 39 38
45 47 48 49 50 53 55 50 36 30 24 20 21 27 30 29 22 20 14 15 15 13 16 17 17 19 19 18 24 21 18 14 14 30 35 36 49 36 39 51 52 48 39 39 40
47 48 49 49 50 52 42 34 34 32 28 27 27 28 30 24 24 21 14 12 14 16 20 20 24 24 21 21 24 24 20 17 18 30 33 40 43 47 36 41 53 51 51 40 41
47 48 49 50 52 45 36 35 31 33 46 29 30 33 28 27 30 19 9 15 18 24 21 24 29 25 26 27 22 21 19 18 27 32 36 35 45 43 45 45 46 51 50 52 40
45 47 49 51 51 31 42 30 32 35 39 44 29 28 27 22 32 24 15 19 23 25 24 28 29 27 26 25 23 22 23 21 21 30 35 35 44 44 46 46 40 47 51 51 47
46 48 49 53 37 42 36 29 33 31 40 42 33 25 17 15 26 21 24 21 24 27 25 31 32 25 24 27 24 26 23 21 25 37 45 30 52 41 45 47 53 48 50 55 56
47 48 48 45 42 39 32 32 30 21 50 29 25 17 16 13 21 19 13 20 24 22 24 30 28 30 37 32 26 28 24 19 24 30 42 39 45 45 35 48 52 56 52 50 58
47 48 48 42 36 31 33 30 21 34 48 31 23 22 19 18 21 20 12 19 21 23 27 31 28 28 31 30 23 24 26 27 24 23 44 47 43 48 42 47 49 49 47 47 48
47 47 46 38 38 34 31 28 33 42 32 34 28 26 26 25 24 21 16 17 19 23 27 29 34 31 30 32 25 22 23 26 21 21 27 39 40 49 35 39 44 43 41 40 39
46 46 40 36 27 30 34 32 43 37 38 34 33 37 31 25 26 22 18 20 23 25 25 30 35 33 30 30 27 22 23 22 22 20 21 28 46 54 49 47 35 40 34 34 35
43 40 39 29 24 31 34 37 37 35 35 40 42 35 32 26 28 23 22 23 23 24 29 26 33 32 26 26 24 26 25 20 28 21 18 32 41 49 43 41 40 39 35 35 36
41 40 36 24 30 31 32 36 33 30 37 36 37 30 35 34 31 29 25 24 27 27 30 30 35 29 25 23 24 27 20 21 25 23 20 31 40 45 32 39 37 37 40 34 32
36 40 28 27 28 29 33 31 28 29 29 30 33 37 38 35 33 31 25 25 26 27 30 34 33 28 24 26 23 24 25 21 18 22 22 38 42 31 39 36 37 39 38 34 29
32 38 27 28 34 27 28 26 26 26 27 26 26 28 30 32 32 30 31 24 22 25 27 29 30 39 39 24 26 28 27 25 25 20 24 30 44 25 23 29 34 34 37 36 29
32 32 24 25 30 28 24 25 26 25 28 26 27 27 29 29 30 29 32 32 27 27 22 23 30 37 32 35 32 30 28 24 25 20 18 31 38 26 19 16 20 29 30 28 27
28 33 28 23 20 23 29 28 23 24 29 22 29 31 33 32 30 37 34 30 36 31 30 26 29 34 40 32 28 31 27 25 21 25 24 38 46 43 30 24 21 21 24 23 25
22 25 23 26 25 22 23 23 27 26 21 25 26 29 32 34 39 34 41 41 38 30 26 26 34 33 39 44 34 35 29 24 22 21 21 46 48 48 35 33 28 19 19 19 23
24 21 20 20 21 23 21 22 22 24 21 26 29 32 31 36 38 45 42 41 39 35 32 28 35 37 39 41 47 43 36 26 22 20 51 50 50 32 28 22 27 24 21 26 23
18 19 19 21 22 23 22 19 22 26 23 23 30 36 39 40 39 41 42 45 47 45 45 37 33 34 37 31 37 50 57 34 22 18 44 52 50 40 41 32 28 25 23 21 21
Wind_Direction
346 344 344 343 341 337 331 327 324 320 314 314 322 325 330 330 329 338 336 350 6 49 19 5 356 343 328 313 308 300 279 271 263 254 250 254 253 258 270 258 251 252 259 257 205
337 337 337 337 334 330 329 327 324 323 323 324 324 327 328 327 329 327 318 324 344 17 340 345 343 344 323 312 306 290 280 277 272 263 252 251 251 257 260 259 251 252 258 226 206
334 333 332 328 321 318 318 320 325 328 328 326 329 332 331 332 330 334 356 94 2 0 326 333 339 333 321 318 301 295 287 279 277 265 257 249 248 252 256 249 251 254 245 224 213
337 332 329 321 313 310 313 316 319 320 322 323 322 324 326 333 324 343 351 356 343 348 338 327 324 318 313 307 303 297 292 279 280 265 259 247 248 245 249 248 261 256 239 224 221
338 334 329 325 323 323 322 317 317 317 317 318 322 321 323 314 306 315 329 334 334 326 307 308 308 307 307 309 305 293 299 291 274 264 259 251 243 244 242 256 262 250 227 229 229
331 330 328 327 325 323 321 321 321 318 315 314 316 318 310 299 319 314 307 308 300 292 294 291 309 302 311 299 293 314 289 285 281 261 258 250 244 243 241 248 254 246 230 231 232
334 333 330 327 324 321 319 316 316 315 314 310 309 309 295 281 315 319 317 296 284 273 291 287 278 311 315 302 301 285 299 301 271 263 257 255 246 237 236 239 247 247 238 235 235
335 333 330 327 326 323 320 317 313 311 309 307 305 303 293 303 291 283 288 294 289 276 278 296 281 288 295 308 309 294 288 284 267 262 259 249 240 240 237 239 243 246 245 237 236
334 333 330 328 326 323 319 316 314 313 309 307 306 300 299 313 294 281 274 275 277 279 283 295 288 285 296 283 295 296 285 271 279 260 256 247 245 248 242 238 240 248 244 236 236
334 332 330 329 328 325 322 319 322 324 321 316 310 306 304 304 308 306 275 258 271 268 277 275 284 281 271 274 271 286 283 287 250 262 253 254 248 256 246 240 240 242 243 236 235
334 333 332 333 331 328 332 334 327 321 320 306 306 298 310 319 309 301 286 249 258 263 258 268 269 257 272 269 280 285 271 266 278 266 256 255 254 249 251 247 239 239 236 239 237
335 333 334 332 329 331 336 332 331 323 311 302 290 284 276 298 302 294 266 252 251 258 257 270 254 268 274 275 276 272 278 273 278 268 258 262 256 253 249 249 242 236 237 236 240
336 334 333 332 330 338 331 330 334 333 313 310 301 299 293 274 268 272 256 256 252 256 250 252 278 266 268 270 268 266 267 278 273 275 264 264 261 254 249 247 247 238 240 237 238
333 332 332 332 336 333 329 335 332 333 313 311 314 321 318 314 302 258 248 253 268 250 257 264 256 273 263 263 264 267 275 269 272 267 257 258 250 256 249 247 242 243 242 238 235
333 332 332 335 330 330 332 332 333 334 305 323 323 340 329 312 321 315 224 245 250 259 259 262 263 258 263 266 264 273 278 269 271 268 260 258 254 255 253 243 241 240 241 238 234
333 332 332 334 335 333 333 331 331 309 300 315 322 318 314 306 310 315 281 260 267 264 268 264 267 263 264 266 262 277 273 283 278 264 257 250 249 253 248 243 243 243 241 239 240
332 332 332 334 327 337 337 328 305 297 314 310 310 316 308 302 296 296 277 247 255 258 263 268 261 263 263 263 263 259 269 276 269 252 247 248 249 250 257 252 247 245 242 238 235
332 332 334 332 333 337 335 312 296 306 301 308 310 304 300 302 295 286 281 261 252 266 276 263 267 259 262 255 259 247 248 260 280 266 255 252 246 244 249 253 258 249 245 235 231
334 335 334 338 338 337 326 307 305 309 313 306 302 297 295 295 294 289 275 268 263 248 263 271 270 271 268 255 239 257 239 241 274 291 273 257 257 256 254 256 251 248 245 235 228
334 334 334 343 339 333 319 308 306 322 314 309 297 298 291 291 291 287 275 282 268 261 254 269 270 266 270 255 247 251 256 252 255 270 276 265 256 252 259 255 251 246 241 237 226
337 333 340 345 342 333 321 316 315 320 324 312 302 298 286 288 280 281 285 285 285 276 259 258 264 266 262 253 243 244 251 263 261 261 276 263 255 264 258 254 249 246 241 236 225
337 331 344 347 333 332 328 331 329 322 320 314 304 302 303 294 281 272 273 276 313 288 270 260 266 257 254 266 261 247 251 254 256 267 267 271 250 263 266 263 251 253 237 236 226
334 333 351 349 335 335 339 337 334 331 325 314 302 300 298 292 282 279 274 277 288 292 282 278 261 256 260 256 257 253 249 248 263 278 263 259 246 250 271 281 270 247 237 231 224
337 335 343 349 350 342 336 335 337 337 325 323 303 295 290 285 284 275 273 273 284 281 281 278 264 258 251 262 252 253 250 250 249 260 265 245 237 236 259 275 273 257 236 227 223
343 337 342 337 336 333 335 333 328 332 337 325 316 301 292 284 281 274 275 276 274 277 278 281 263 266 258 251 256 254 255 243 238 224 247 239 237 235 259 264 259 254 237 225 219
338 343 342 338 338 334 331 333 331 331 331 325 314 303 297 286 282 272 274 270 264 267 271 277 262 267 262 254 247 250 253 253 241 234 239 243 240 258 269 274 252 246 245 238 230
348 343 341 332 336 335 331 332 332 328 324 323 312 300 293 290 288 279 275 266 260 259 258 263 262 262 257 270 253 243 229 252 254 235 240 233 231 250 249 261 256 252 250 246 234